Dewpoint
10 11 11 9 8 9 10 11 10 8 7 7 7 8 9 9 9 9 9 9 4 4 2 1 1 1 1 1 1 -0 -0 0 3 9 11 11 14 13
8 10 11 9 9 9 10 9 9 9 9 7 7 8 9 10 10 10 10 5 4 4 1 1 1 2 1 1 2 1 -0 -0 -0 2 9 11 11 13
10 11 12 12 10 9 8 8 8 9 8 8 8 8 9 10 10 10 10 10 9 8 7 4 1 1 1 1 2 1 1 0 -0 0 2 9 12 12
11 12 12 10 11 11 10 10 9 10 10 9 9 9 9 9 10 10 10 9 9 8 8 6 6 1 0 2 1 -0 2 3 2 1 1 3 9 12
11 11 11 11 11 10 10 9 9 9 9 9 9 9 8 8 8 8 9 8 9 8 7 7 7 6 6 6 5 5 3 2 4 4 2 1 4 10
11 12 12 12 11 11 10 11 11 10 9 9 9 8 8 8 7 8 7 7 6 7 7 7 6 7 7 7 7 6 6 6 6 5 4 2 2 6
12 12 12 12 10 8 9 9 8 9 8 8 8 7 7 8 8 7 7 7 7 7 7 6 5 6 7 7 7 6 6 6 5 5 7 5 3 4
13 13 10 8 9 9 8 8 8 8 7 8 9 8 9 10 9 8 8 8 8 7 7 6 7 8 7 7 6 5 5 6 6 6 6 8 6 4
12 8 8 9 11 10 10 9 8 8 7 8 10 10 9 9 9 9 9 9 8 6 8 8 8 7 6 5 5 6 7 7 6 7 7 6 9 8
9 9 8 9 9 9 10 9 9 8 10 10 10 9 9 8 6 7 7 8 7 8 8 8 6 5 5 6 6 6 6 6 7 8 7 7 7 9
8 6 7 7 9 8 8 8 9 9 9 9 7 4 3 3 2 5 7 8 8 8 7 7 5 6 6 5 5 7 7 9 9 8 8 7 7 8
7 7 7 7 8 8 8 9 10 9 9 7 7 8 6 7 6 7 7 7 7 5 4 6 6 7 7 7 8 8 8 9 9 10 9 8 7 9
6 8 9 6 9 8 8 7 8 5 2 3 6 4 3 4 5 5 6 5 3 3 4 7 7 6 7 7 7 8 9 10 10 10 11 8 8 9
8 10 10 8 8 7 7 7 6 4 5 6 5 3 3 3 3 3 3 2 1 3 5 7 7 7 7 7 7 9 9 10 11 12 12 8 8 10
10 7 7 7 7 6 6 6 5 5 6 5 3 2 3 3 3 2 0 -2 0 6 8 7 6 7 7 7 8 9 10 10 11 12 12 12 8 11
6 6 6 6 6 6 6 6 6 6 5 3 3 3 2 2 0 -2 -4 -2 4 6 8 7 7 7 7 8 9 10 10 11 11 13 12 13 13 13
7 7 7 7 7 7 7 6 5 4 3 3 2 2 0 -1 -3 -5 -4 2 6 7 7 7 6 5 7 8 9 8 10 11 12 12 12 13 13 13
6 6 6 6 6 5 5 4 3 2 2 1 1 -0 -2 -3 -4 -5 -3 2 6 7 7 6 7 7 6 7 8 8 8 10 11 12 13 13 12 12
4 5 5 5 4 4 3 1 1 0 0 -0 -1 -2 -4 -4 -5 -4 -3 1 4 6 6 7 7 7 6 7 7 7 7 8 11 11 12 13 13 12
4 4 4 3 3 2 2 1 -0 -1 -2 -3 -3 -4 -5 -5 -5 -5 -4 -0 3 5 6 7 7 7 7 7 6 6 7 8 9 11 12 12 12 13
4 3 2 1 1 2 1 0 -1 -4 -7 -5 -4 -5 -5 -6 -6 -5 -4 -2 2 5 6 6 7 7 7 6 6 6 7 7 7 9 12 11 11 13
3 2 2 2 2 2 -0 -2 -5 -7 -5 -5 -6 -5 -6 -6 -6 -6 -5 -4 1 4 5 5 6 5 6 6 6 6 6 7 7 7 8 11 12 12
4 3 3 2 1 -1 -4 -6 -8 -7 -6 -6 -6 -6 -6 -6 -6 -7 -7 -6 -4 1 3 5 6 6 6 5 5 6 6 5 5 6 8 10 10 11
Wind_Speed
9 9 10 10 11 12 13 13 14 17 16 13 15 13 12 14 15 16 15 17 20 20 19 19 19 19 20 21 22 25 29 33 36 40 39 40 40 39
9 10 11 11 12 12 12 14 14 18 22 17 16 16 16 17 16 19 17 20 21 23 21 21 22 22 23 23 24 26 28 31 36 38 43 42 43 43
11 12 11 12 11 11 12 13 15 15 20 22 19 18 17 19 19 19 20 20 20 22 27 27 24 26 27 27 26 28 30 32 34 39 41 46 45 45
12 12 10 10 11 12 13 13 15 15 19 22 23 21 20 19 19 21 22 22 22 23 29 28 27 29 28 28 29 29 29 31 35 39 42 44 48 47
13 13 13 13 14 13 15 15 16 17 20 21 22 19 22 21 21 24 21 25 22 22 26 27 32 32 31 32 33 39 36 32 33 38 42 46 48 50
15 15 15 15 15 14 16 16 16 18 21 21 22 22 22 24 24 24 25 25 27 26 28 31 32 31 32 29 37 37 37 41 37 34 41 45 48 51
16 16 16 16 17 17 18 19 22 21 22 23 25 25 27 24 25 26 27 27 28 27 30 30 32 31 31 33 35 37 42 46 47 43 38 42 47 49
16 17 18 20 25 23 22 24 25 25 27 25 26 29 28 25 24 25 27 28 32 26 31 34 31 35 35 35 40 47 52 53 49 45 43 41 43 48
19 20 22 24 24 26 26 24 24 26 27 29 24 23 25 23 25 28 26 28 32 32 33 37 30 37 37 42 47 51 54 55 50 43 42 45 44 45
23 23 25 23 24 27 24 22 23 24 20 23 22 22 22 26 30 31 30 31 33 29 27 37 33 38 44 46 54 55 49 44 42 41 41 44 47 47
26 29 36 36 23 26 23 24 22 22 19 22 26 25 26 28 29 28 23 24 27 29 27 32 36 42 48 60 56 47 37 34 33 38 40 43 44 45
28 30 29 19 22 22 22 22 17 17 16 19 21 19 22 21 23 24 23 24 27 33 30 32 38 42 48 53 49 46 38 31 33 28 36 40 43 43
26 19 15 16 18 20 22 22 18 20 21 20 18 20 20 19 19 19 21 22 27 32 31 31 40 45 44 47 54 48 34 29 26 32 30 40 44 45
18 10 17 19 19 20 21 21 20 20 16 17 18 20 20 20 20 21 26 26 27 31 31 31 38 41 46 51 49 45 31 30 30 22 27 34 42 45
11 16 19 20 21 20 20 18 17 13 15 16 18 19 18 20 23 23 24 28 26 24 24 28 33 41 43 47 44 36 33 31 27 19 27 25 39 46
16 18 18 17 17 16 18 12 9 11 13 16 16 17 18 19 21 22 24 23 23 24 25 26 31 40 41 33 26 28 26 26 27 16 24 29 30 39
13 9 9 9 10 9 9 9 10 11 12 13 16 17 18 18 19 20 20 21 22 25 31 28 37 37 37 27 22 25 23 20 17 17 24 27 28 32
12 8 10 10 9 9 11 11 11 12 11 13 14 16 16 17 19 19 18 19 22 24 32 32 33 40 43 36 21 31 27 22 12 14 12 24 29 32
7 8 8 9 8 10 10 10 10 11 14 11 14 14 14 15 17 18 19 19 22 22 30 28 31 37 35 36 33 29 30 26 15 12 13 11 20 29
6 7 8 9 9 9 9 9 11 10 11 12 12 12 12 13 15 17 18 19 21 23 29 28 29 25 31 30 30 29 21 20 13 13 7 12 14 16
7 6 7 8 8 8 9 9 10 9 10 9 9 10 10 12 14 16 17 20 20 19 23 26 23 24 25 31 35 31 21 14 18 9 7 13 13 17
6 6 7 8 8 8 8 8 8 8 7 7 8 9 10 11 13 15 16 18 18 18 22 23 23 20 28 34 34 35 32 16 19 26 15 7 10 10
7 7 8 8 7 7 7 7 6 6 6 7 7 9 10 11 13 14 15 16 17 18 20 17 17 15 21 25 32 34 41 35 34 29 27 15 11 15
Wind_Direction
252 258 268 275 278 283 289 295 297 301 297 293 297 293 296 301 289 292 292 289 292 291 289 287 291 291 294 292 291 283 275 267 262 254 252 249 248 245
248 246 256 269 276 281 285 287 288 292 296 299 295 293 288 287 293 291 290 294 295 291 290 286 293 294 292 298 290 290 284 273 264 259 251 249 247 246
243 245 251 257 267 273 281 287 288 288 287 294 292 297 291 292 292 292 293 294 293 296 294 294 297 296 298 295 294 299 290 280 269 259 255 248 245 244
241 242 248 262 264 277 286 284 286 283 281 282 291 296 295 292 290 289 295 291 287 286 286 298 301 300 298 297 300 304 299 282 272 264 253 250 244 242
242 243 251 256 266 271 272 279 289 291 291 288 287 296 297 298 295 295 291 293 292 296 300 300 297 296 298 305 304 306 306 293 278 265 258 247 244 240
247 250 253 258 264 271 279 282 292 293 298 290 288 295 297 296 290 290 294 294 291 290 288 291 296 295 298 299 297 299 301 304 295 269 259 251 243 239
250 260 265 268 270 274 271 278 283 291 290 292 290 297 297 290 290 294 293 292 290 292 291 289 292 288 286 291 291 294 291 288 288 282 263 253 246 240
261 264 267 279 287 283 280 283 283 288 290 290 290 291 289 289 294 294 290 293 293 291 290 290 290 290 290 290 291 293 292 288 283 273 261 251 245 240
258 272 277 285 287 286 287 283 282 287 291 291 285 286 290 295 295 293 295 291 292 293 290 289 293 292 295 293 290 294 287 282 279 266 255 248 239 238
257 266 280 287 292 283 273 279 283 289 287 283 285 286 285 291 295 294 293 293 295 294 296 289 298 295 299 297 297 297 295 285 272 261 250 242 240 235
266 282 286 286 282 277 278 285 286 289 288 292 292 296 297 294 292 293 293 292 290 294 298 296 298 300 302 309 308 304 303 297 281 258 246 237 235 231
279 282 284 269 270 272 281 284 284 284 277 285 293 299 304 304 310 309 311 298 298 300 303 300 302 312 311 308 308 302 303 289 274 266 249 232 229 225
282 278 271 266 262 277 283 281 270 275 287 297 297 302 301 299 298 294 288 293 297 296 302 304 312 314 305 303 308 306 300 296 277 272 250 229 224 218
271 251 248 273 283 284 283 279 282 285 288 287 294 300 298 298 297 294 297 304 301 299 311 316 315 316 314 309 300 302 295 294 298 259 235 230 222 213
229 247 273 283 288 291 283 281 283 288 283 290 294 294 294 296 302 308 302 304 310 304 305 319 331 336 325 304 299 293 293 300 305 243 218 217 214 207
257 266 279 288 286 261 272 293 286 276 282 291 293 295 299 304 303 307 308 312 311 311 314 325 331 344 337 325 309 304 305 293 310 248 226 216 219 213
257 271 279 271 266 272 270 273 277 286 289 291 293 298 301 305 307 310 312 315 314 318 327 332 344 345 350 346 328 346 328 325 306 263 236 232 227 221
281 261 264 267 265 263 266 274 281 287 293 290 296 298 304 309 313 318 318 316 319 322 332 338 341 350 353 360 350 351 344 333 328 286 262 238 237 226
268 257 262 262 265 265 268 275 281 282 285 300 295 301 308 315 321 324 324 322 319 326 339 341 342 348 351 347 354 351 348 335 312 279 252 257 246 233
248 256 263 263 263 264 269 280 284 290 293 293 297 305 314 319 326 329 332 328 326 328 333 344 348 358 359 351 344 350 358 349 331 271 279 268 256 254
254 261 260 257 259 263 272 278 284 290 284 289 301 308 317 326 329 331 335 335 337 335 337 346 357 2 12 14 13 11 12 37 48 360 270 264 270 263
239 244 249 249 251 256 267 278 289 288 289 294 298 311 321 329 329 334 337 339 340 338 342 2 360 22 34 32 23 24 22 30 61 64 64 265 261 243
235 237 244 246 249 262 268 273 271 274 285 293 305 314 323 330 333 336 339 342 342 344 349 345 352 23 30 28 27 28 32 36 36 53 69 73 15 278
Height
1563 1563 1565 1565 1564 1564 1564 1562 1559 1555 1553 1551 1553 1552 1550 1550 1549 1545 1543 1541 1539 1537 1537 1536 1534 1532 1531 1529 1527 1525 1524 1524 1525 1526 1528 1531 1533 1536
1559 1560 1560 1562 1561 1561 1560 1560 1558 1554 1550 1551 1547 1547 1545 1543 1543 1540 1538 1534 1532 1531 1529 1528 1527 1525 1524 1521 1519 1517 1515 1514 1514 1515 1517 1520 1523 1526
1556 1555 1555 1556 1557 1558 1557 1556 1556 1554 1550 1545 1545 1543 1541 1538 1537 1536 1535 1531 1529 1526 1522 1519 1518 1516 1514 1512 1510 1508 1505 1504 1503 1503 1505 1508 1511 1515
1551 1552 1552 1554 1553 1553 1553 1552 1552 1550 1547 1544 1540 1539 1536 1533 1530 1529 1528 1526 1523 1520 1517 1513 1509 1506 1504 1501 1499 1497 1495 1493 1491 1491 1492 1495 1498 1502
1548 1548 1549 1549 1548 1548 1549 1547 1547 1545 1542 1538 1536 1533 1532 1527 1525 1523 1521 1519 1514 1511 1508 1506 1501 1498 1494 1490 1488 1485 1483 1482 1480 1478 1478 1481 1484 1489
1544 1543 1543 1544 1543 1543 1543 1542 1540 1539 1536 1533 1530 1525 1525 1523 1519 1516 1513 1512 1509 1506 1503 1500 1494 1489 1485 1481 1479 1476 1472 1469 1467 1466 1465 1467 1470 1475
1538 1539 1539 1538 1537 1536 1536 1536 1534 1532 1531 1528 1524 1520 1518 1516 1513 1510 1507 1503 1500 1498 1494 1491 1487 1481 1477 1473 1469 1466 1463 1458 1455 1454 1453 1453 1456 1461
1534 1535 1534 1533 1531 1531 1529 1527 1526 1524 1522 1521 1518 1514 1510 1508 1507 1503 1501 1497 1492 1491 1485 1480 1478 1470 1466 1462 1457 1452 1447 1443 1440 1437 1437 1439 1442 1446
1526 1527 1527 1528 1526 1524 1522 1521 1519 1517 1514 1512 1509 1507 1504 1503 1499 1495 1493 1489 1484 1480 1476 1467 1467 1458 1455 1450 1443 1436 1429 1424 1422 1421 1421 1423 1427 1431
1519 1520 1519 1519 1520 1518 1516 1514 1513 1510 1508 1505 1502 1499 1498 1495 1491 1487 1483 1477 1473 1471 1467 1457 1456 1447 1441 1435 1426 1416 1410 1405 1403 1403 1405 1407 1412 1418
1514 1513 1513 1510 1513 1513 1511 1508 1505 1504 1503 1498 1495 1492 1490 1488 1483 1477 1475 1473 1466 1462 1459 1451 1445 1437 1428 1413 1406 1399 1394 1389 1385 1385 1388 1392 1397 1405
1507 1504 1503 1503 1504 1506 1504 1502 1499 1499 1496 1492 1490 1486 1483 1480 1477 1473 1469 1465 1461 1455 1453 1445 1436 1428 1407 1400 1392 1387 1381 1377 1374 1373 1375 1378 1385 1393
1499 1497 1496 1498 1497 1497 1496 1494 1492 1490 1488 1485 1484 1482 1479 1475 1473 1471 1467 1462 1456 1449 1445 1438 1426 1419 1412 1392 1380 1376 1372 1367 1365 1364 1363 1366 1373 1381
1494 1494 1491 1491 1490 1489 1488 1487 1486 1483 1482 1482 1479 1476 1473 1470 1467 1464 1459 1453 1449 1442 1435 1431 1421 1412 1398 1385 1374 1364 1362 1359 1354 1353 1355 1356 1363 1372
1490 1488 1486 1485 1485 1483 1482 1481 1479 1479 1479 1476 1474 1471 1467 1463 1460 1457 1453 1448 1442 1438 1432 1425 1415 1402 1391 1377 1366 1360 1356 1351 1348 1345 1350 1351 1353 1362
1483 1482 1481 1480 1479 1479 1477 1474 1475 1475 1474 1470 1469 1465 1462 1458 1456 1453 1447 1442 1437 1432 1426 1419 1408 1398 1381 1368 1360 1355 1350 1348 1343 1342 1345 1348 1352 1359
1477 1477 1478 1479 1478 1476 1475 1473 1472 1471 1469 1466 1465 1461 1458 1454 1451 1447 1443 1438 1433 1425 1417 1412 1402 1393 1381 1368 1360 1354 1346 1343 1341 1339 1341 1344 1348 1353
1473 1475 1476 1475 1474 1473 1472 1471 1469 1467 1465 1462 1460 1458 1454 1450 1446 1442 1439 1435 1429 1423 1413 1406 1399 1388 1378 1368 1361 1353 1345 1340 1335 1336 1337 1339 1342 1346
1470 1471 1471 1471 1470 1470 1469 1467 1465 1463 1460 1458 1457 1454 1451 1447 1443 1439 1435 1431 1426 1421 1413 1405 1398 1390 1377 1368 1359 1355 1346 1336 1334 1333 1336 1336 1337 1340
1468 1468 1467 1467 1466 1465 1464 1463 1462 1459 1458 1456 1454 1451 1448 1445 1441 1437 1433 1429 1424 1419 1411 1406 1399 1391 1384 1374 1364 1356 1350 1343 1337 1330 1331 1334 1335 1336
1465 1465 1464 1463 1463 1462 1460 1458 1456 1455 1453 1452 1451 1449 1446 1443 1440 1436 1432 1428 1424 1419 1413 1405 1400 1395 1387 1378 1367 1358 1351 1346 1340 1333 1329 1328 1331 1331
1461 1461 1460 1460 1459 1457 1456 1454 1453 1453 1452 1451 1450 1447 1444 1441 1438 1435 1432 1428 1424 1419 1413 1407 1402 1396 1389 1382 1375 1365 1354 1347 1339 1333 1329 1330 1329 1325
1457 1457 1457 1457 1455 1452 1451 1451 1451 1451 1451 1449 1447 1445 1442 1440 1437 1434 1431 1427 1424 1420 1413 1410 1404 1398 1392 1387 1380 1370 1360 1350 1342 1332 1327 1326 1323 1320